パンスターズ彗星

C/2020 F6 ( PanSTARRS )

English version
Home page
Updated on June 29, 2020

---------------------------------------------------------------------

・ プロフィール

発見日 2020年3月21日
発見光度 21.4等
発見者 Pan-STARRS 1 telescope (Haleakala)

・ 写真集

・ 軌道要素

Epoch 2020 Apr. 21.0 TT = JDT 2458960.5
T 2020 Apr. 11.55979 TT                                 Rudenko
q   3.5110780            (2000.0)            P               Q
z  +0.0025665      Peri.  344.58954     -0.72844609     -0.68367861
 +/-0.0000232      Node   207.87968     -0.61816659     +0.62812141
e   0.9909889      Incl.  174.58147     -0.29535803     +0.37154683
From 87 observations 2020 Mar. 21-June 22, mean residual 0".3.

・ 光度変化

        m1 = 12.5 + 5 logΔ + 10.0 log r

---------------------------------------------------------------------

軌道要素はM.P.E.C. 2020-M114に掲載されたものです。
光度グラフはComet for Windowsで作成したものです。

---------------------------------------------------------------------

Copyright(C) Seiichi Yoshida (comet@aerith.net). All rights reserved.